When you browse on this site, cookies collect data to enhance your experience and personalize the content and advertising you see.
Visit our Privacy Policy to learn more. By continuing to use the site, you agree to this use of cookies and data.

Hourly Weather Stroyka

Today, 13 July, Monday

Time Temperature Precipitation Wind Pressure Humidity
00:00 +18°C° 0 mm 2 mps 734 mmHg 79%
01:00 +17°C° 0 mm 2 mps 734 mmHg 81%
02:00 +17°C° 0 mm 2 mps 734 mmHg 82%
03:00 +17°C° 0 mm 2 mps 733 mmHg 83%
04:00 +17°C° 0 mm 2 mps 733 mmHg 83%
05:00 +17°C° 0 mm 2 mps 732 mmHg 84%
06:00 +19°C° 0 mm 3 mps 732 mmHg 82%
07:00 +20°C° 0 mm 3 mps 732 mmHg 81%
08:00 +22°C° 0 mm 4 mps 732 mmHg 79%
09:00 +22°C° 0.3 mm 4 mps 732 mmHg 80%
10:00 +22°C° 0.3 mm 4 mps 732 mmHg 80%
11:00 +22°C° 0.3 mm 4 mps 732 mmHg 81%
12:00 +21°C° 0.9 mm 4 mps 732 mmHg 84%
13:00 +21°C° 0.9 mm 3 mps 731 mmHg 88%
14:00 +20°C° 0.9 mm 3 mps 731 mmHg 91%
15:00 +20°C° 0.2 mm 2 mps 731 mmHg 90%
16:00 +20°C° 0.2 mm 2 mps 730 mmHg 88%
17:00 +22°C° 0.2 mm 1 mps 730 mmHg 87%
18:00 +21°C° 0 mm 1 mps 730 mmHg 89%
19:00 +20°C° 0 mm 1 mps 730 mmHg 91%
20:00 +20°C° 0 mm 1 mps 731 mmHg 93%
21:00 +19°C° 0.1 mm 1 mps 731 mmHg 94%
22:00 +18°C° 0.1 mm 2 mps 730 mmHg 94%
23:00 +18°C° 0.1 mm 3 mps 730 mmHg 95%

Tomorrow, 14 July, Tuesday

Time Temperature Precipitation Wind Pressure Humidity
00:00 +18°C° 1.2 mm 3 mps 730 mmHg 96%
01:00 +17°C° 1.2 mm 3 mps 730 mmHg 97%
02:00 +17°C° 1.2 mm 3 mps 730 mmHg 98%
03:00 +17°C° 1.7 mm 3 mps 730 mmHg 98%
04:00 +17°C° 1.7 mm 4 mps 729 mmHg 97%
05:00 +16°C° 1.7 mm 5 mps 729 mmHg 97%
06:00 +16°C° 2.1 mm 5 mps 729 mmHg 97%
07:00 +16°C° 2.1 mm 5 mps 728 mmHg 96%
08:00 +16°C° 2.1 mm 6 mps 728 mmHg 96%
09:00 +16°C° 1.4 mm 5 mps 728 mmHg 96%
10:00 +16°C° 1.4 mm 5 mps 728 mmHg 96%
11:00 +16°C° 1.4 mm 5 mps 727 mmHg 96%
12:00 +16°C° 3.8 mm 5 mps 727 mmHg 97%
13:00 +17°C° 3.8 mm 5 mps 727 mmHg 97%
14:00 +17°C° 3.8 mm 5 mps 726 mmHg 97%
15:00 +17°C° 2.2 mm 5 mps 726 mmHg 97%
16:00 +16°C° 2.2 mm 5 mps 726 mmHg 96%
17:00 +16°C° 2.2 mm 5 mps 726 mmHg 95%
18:00 +17°C° 0.1 mm 4 mps 726 mmHg 96%
19:00 +17°C° 0.1 mm 4 mps 726 mmHg 96%
20:00 +15°C° 0.1 mm 4 mps 726 mmHg 96%
21:00 +16°C° 0 mm 3 mps 726 mmHg 96%
22:00 +16°C° 0 mm 3 mps 726 mmHg 96%
23:00 +14°C° 0 mm 3 mps 725 mmHg 96%

Day after tomorrow, 15 July, Wednesday

Time Temperature Precipitation Wind Pressure Humidity
00:00 +14°C° 0 mm 3 mps 725 mmHg 96%
01:00 +14°C° 0 mm 3 mps 726 mmHg 97%
02:00 +14°C° 0 mm 3 mps 726 mmHg 97%
03:00 +14°C° 0.1 mm 3 mps 725 mmHg 96%
04:00 +14°C° 0.1 mm 3 mps 725 mmHg 96%
05:00 +13°C° 0.1 mm 4 mps 725 mmHg 96%
06:00 +13°C° 0.4 mm 5 mps 726 mmHg 96%
07:00 +13°C° 0.4 mm 5 mps 726 mmHg 95%
08:00 +11°C° 0.4 mm 6 mps 726 mmHg 95%
09:00 +11°C° 0.2 mm 6 mps 727 mmHg 94%
10:00 +10°C° 0.2 mm 7 mps 727 mmHg 93%
11:00 +10°C° 0.2 mm 8 mps 727 mmHg 92%
12:00 +10°C° 0.1 mm 8 mps 728 mmHg 92%
13:00 +10°C° 0.1 mm 8 mps 728 mmHg 91%
14:00 +10°C° 0.1 mm 9 mps 729 mmHg 90%
15:00 +8°C° 0.1 mm 9 mps 729 mmHg 91%
16:00 +8°C° 0.1 mm 9 mps 729 mmHg 91%
17:00 +8°C° 0.1 mm 9 mps 729 mmHg 91%
18:00 +8°C° 0.8 mm 9 mps 729 mmHg 93%
19:00 +8°C° 0.8 mm 9 mps 730 mmHg 94%
20:00 +8°C° 0.8 mm 9 mps 730 mmHg 95%
21:00 +9°C° 0.2 mm 8 mps 730 mmHg 95%
22:00 +9°C° 0.2 mm 8 mps 730 mmHg 95%
23:00 +9°C° 0.2 mm 7 mps 730 mmHg 95%

16 July, Thursday

Time Temperature Precipitation Wind Pressure Humidity
00:00 +9°C° 0 mm 7 mps 730 mmHg 95%
01:00 +9°C° 0 mm 7 mps 730 mmHg 95%
02:00 +9°C° 0 mm 7 mps 731 mmHg 95%
03:00 +9°C° 0 mm 7 mps 731 mmHg 94%
04:00 +10°C° 0 mm 7 mps 731 mmHg 93%
05:00 +10°C° 0 mm 7 mps 731 mmHg 93%
06:00 +10°C° 0 mm 6 mps 731 mmHg 91%
07:00 +11°C° 0 mm 6 mps 731 mmHg 90%
08:00 +11°C° 0 mm 6 mps 732 mmHg 89%
09:00 +13°C° 0 mm 6 mps 732 mmHg 86%
10:00 +15°C° 0 mm 6 mps 732 mmHg 83%
11:00 +16°C° 0 mm 6 mps 732 mmHg 81%
12:00 +16°C° 0.2 mm 6 mps 732 mmHg 81%
13:00 +17°C° 0.2 mm 5 mps 733 mmHg 81%
14:00 +17°C° 0.2 mm 5 mps 733 mmHg 81%
15:00 +17°C° 0.4 mm 5 mps 733 mmHg 82%
16:00 +17°C° 0.4 mm 5 mps 733 mmHg 84%
17:00 +17°C° 0.4 mm 5 mps 733 mmHg 86%
18:00 +17°C° 0.2 mm 4 mps 733 mmHg 88%
19:00 +15°C° 0.2 mm 4 mps 733 mmHg 90%
20:00 +14°C° 0.2 mm 3 mps 733 mmHg 93%
21:00 +13°C° 0 mm 3 mps 733 mmHg 93%
22:00 +13°C° 0 mm 3 mps 733 mmHg 94%
23:00 +12°C° 0 mm 3 mps 733 mmHg 94%

17 July, Friday

Time Temperature Precipitation Wind Pressure Humidity
00:00 +12°C° 0 mm 3 mps 733 mmHg 95%
01:00 +12°C° 0 mm 3 mps 733 mmHg 95%
02:00 +11°C° 0 mm 3 mps 733 mmHg 95%
03:00 +12°C° 0 mm 3 mps 733 mmHg 95%
04:00 +13°C° 0 mm 2 mps 733 mmHg 95%
05:00 +13°C° 0 mm 2 mps 734 mmHg 96%
06:00 +14°C° 0 mm 2 mps 734 mmHg 92%
07:00 +16°C° 0 mm 3 mps 734 mmHg 88%
08:00 +17°C° 0 mm 3 mps 734 mmHg 85%
09:00 +18°C° 0.1 mm 3 mps 734 mmHg 80%
10:00 +19°C° 0.1 mm 3 mps 734 mmHg 76%
11:00 +20°C° 0.1 mm 4 mps 734 mmHg 72%
12:00 +21°C° 0.2 mm 4 mps 734 mmHg 72%
13:00 +21°C° 0.2 mm 4 mps 734 mmHg 72%
14:00 +21°C° 0.2 mm 4 mps 734 mmHg 72%
15:00 +21°C° 0.2 mm 4 mps 735 mmHg 74%
16:00 +20°C° 0.2 mm 3 mps 735 mmHg 76%
17:00 +20°C° 0.2 mm 3 mps 735 mmHg 78%
18:00 +19°C° 0.1 mm 3 mps 735 mmHg 82%
19:00 +17°C° 0.1 mm 2 mps 735 mmHg 86%
20:00 +16°C° 0.1 mm 2 mps 735 mmHg 90%
21:00 +16°C° 0 mm 2 mps 735 mmHg 91%
22:00 +15°C° 0 mm 1 mps 735 mmHg 91%
23:00 +14°C° 0 mm 1 mps 735 mmHg 92%

18 July, Saturday

Time Temperature Precipitation Wind Pressure Humidity
00:00 +14°C° 0 mm 1 mps 736 mmHg 93%
01:00 +14°C° 0 mm 2 mps 736 mmHg 93%
02:00 +14°C° 0 mm 2 mps 736 mmHg 94%
03:00 +14°C° 0 mm 2 mps 736 mmHg 94%
04:00 +14°C° 0 mm 2 mps 736 mmHg 94%
05:00 +14°C° 0 mm 2 mps 736 mmHg 94%
06:00 +15°C° 0 mm 2 mps 736 mmHg 90%
07:00 +17°C° 0 mm 3 mps 736 mmHg 85%
08:00 +18°C° 0 mm 3 mps 737 mmHg 81%
09:00 +19°C° 0 mm 3 mps 737 mmHg 76%
10:00 +20°C° 0 mm 3 mps 737 mmHg 72%
11:00 +21°C° 0 mm 3 mps 737 mmHg 67%
12:00 +21°C° 0.1 mm 3 mps 737 mmHg 66%
13:00 +21°C° 0.1 mm 3 mps 737 mmHg 65%
14:00 +21°C° 0.1 mm 3 mps 737 mmHg 64%
15:00 +21°C° 0.1 mm 3 mps 737 mmHg 68%
16:00 +21°C° 0.1 mm 3 mps 737 mmHg 72%
17:00 +20°C° 0.1 mm 3 mps 737 mmHg 76%
18:00 +18°C° 0 mm 3 mps 737 mmHg 79%
19:00 +16°C° 0 mm 3 mps 737 mmHg 83%
20:00 +14°C° 0 mm 4 mps 737 mmHg 86%
21:00 +13°C° 0 mm 3 mps 737 mmHg 86%
22:00 +12°C° 0 mm 3 mps 737 mmHg 86%
23:00 +12°C° 0 mm 2 mps 737 mmHg 87%
Show more